Tracking 19576 objects as of 18-Feb-2019
HD Live streaming from Space Station
objects crossing your sky now

IRIDIUM 95

Track IRIDIUM 95 now!
10-day predictions
IRIDIUM 95 is classified as:


NORAD ID: 27375
Int'l Code: 2002-005D
Perigee: 783.8 km
Apogee: 785.9 km
Inclination: 86.4 °
Period: 100.4 minutes
Semi major axis: 7155 km
RCS: 3.5114 m2 (large)
Launch date: February 11, 2002
Source: United States (US)
Launch site: AIR FORCE WESTERN TEST RANGE (AFWTR)

Spare; stored in 667 km storage orbit, not raised to 780 km operational orbit until needed
aabbcc
Your satellite tracking list
Your tracking list is empty




NASA's NSSDC Master Catalog

Two Line Element Set (TLE):
1 27375U 02005D   19048.59980416  .00000028  00000-0  29808-5 0  9997
2 27375  86.3957  32.0428 0001454  91.3126 268.8236 14.34216369898402
Source of the keplerian elements: AFSPC